Retour au catalogue

STARLINK-1296

ActifCommunicationsVLEO
NORAD 45412·PAYLOAD·🇺🇸 United States

Lancé Mar 18, 2020 depuis Cape Canaveral Space Force Station

Loading…

Prochains Passages (prochaines 24 heures)

TLE

FraisSource: CelesTrak SupGP

Époque: Sep 15, 2026, 01:09 UTC

1 45412C 20019BE  26258.04840278  .00077488  00000+0  15122-2 0  2588
2 45412  53.1514 318.0979 0003305  18.9968  91.9978 15.46858231    13

Suivez STARLINK-1296 en temps réel avec AllMySat

Download on the App Store